Regional Weather Roundup
Issued by NWS

Home | Current Version | Previous Version | Text Only | Print | Product List | Glossary On
Versions: 1 2 3 4 5 6 7 8 9 10 11 12 13 14 15 16 17 18 19 20 21 22 23 24 25 26 27 28 29 30 31 32 33 34 35 36 37 38 39 40 41 42 43 44 45 46 47 48 49 50
000
ASUS43 KTOP 262159
RWRKS

WEATHER ROUNDUP FOR KANSAS
NATIONAL WEATHER SERVICE GOODLAND KS
500 PM CDT FRI AUG 26 2016

NOTE:  "FAIR" INDICATES FEW OR NO CLOUDS BELOW 12,000 FEET WITH NO
SIGNIFICANT WEATHER AND/OR OBSTRUCTIONS TO VISIBILITY.

KSZ001>006-013>018-027>032-041>047-262300-
NORTHWEST KANSAS

CITY           SKY/WX    TMP DP  RH WIND       PRES   REMARKS
GOODLAND       CLOUDY    71  61  70 SE12      30.03F
HAYS           MOSUNNY   73  59  60 SE3       30.02F
HILL CITY      PTSUNNY   75  64  68 E10       30.04S
RUSSELL        PTSUNNY   74  66  76 CALM      30.01F
$$

KSZ061>065-074>080-084>089-262300-
SOUTHWEST KANSAS

CITY           SKY/WX    TMP DP  RH WIND       PRES   REMARKS
DODGE CITY     MOSUNNY   77  61  57 S10       30.03S
ELKHART          N/A     84  58  41 SE12        N/A
GARDEN CITY    MOSUNNY   78  60  53 S8        30.02F
GREAT BEND     PTSUNNY   79  61  53 S12       30.00F
LIBERAL        MOSUNNY   81  61  50 S9        30.04F
$$

KSZ066>073-081>083-090>101-262300-
SOUTHEAST KANSAS

CITY           SKY/WX    TMP DP  RH WIND       PRES   REMARKS
CHANUTE        TSTM      76  68  76 SE13G26   30.00S
COFFEYVILLE    CLOUDY    85  71  63 S12       29.98F
HUTCHINSON     CLOUDY    81  66  60 SE8       30.01F
MEDICINE LODGE   N/A     80  63  55 SW5       29.99F
NEWTON         MOSUNNY   82  69  64 SW7       30.02F
PARSONS        CLOUDY    85  69  58 S7        30.01R THUNDER
WICHITA INTL   PTSUNNY   82  67  60 MISG      29.99F
WICHITA JABRA  MOSUNNY   81  67  62 S10       30.00F
WINFIELD       SUNNY     85  68  56 S7        30.00F
$$

KSZ007>012-019>026-033>040-048>060-102>105-262300-
NORTHEAST KANSAS

CITY           SKY/WX    TMP DP  RH WIND       PRES   REMARKS
CONCORDIA      MOSUNNY   74  66  76 VRB6      30.02F
EMPORIA        MOSUNNY   83  67  58 S10       29.99F
LAWRENCE       CLOUDY    83  70  64 SE14      29.97F
MANHATTAN      CLOUDY    79  69  71 VRB6      29.99F
OLATHE IND     CLOUDY    84  71  65 SE10      30.00F
OLATHE EXE     PTSUNNY   81  72  74 SE10      30.00F
SALINA         PTSUNNY   80  67  64 SW5       30.01F
TOPEKA BILLARD CLOUDY    74  70  87 NW9       29.98F
TOPEKA FORBES  LGT RAIN  78  72  81 NW7       29.99S
$$




USA.gov is the U.S. government's official web portal to all federal, state and local government web resources and services.